Location: Unspecified
(38.9119°N, 0.0000°E)
Time: 12:43:55
(UTC+00:00)

ISS - Visible Passes

Search period start: 23 October 2019 00:00
Search period end: 02 November 2019 00:00
Orbit: 411 x 421 km, 51.6° (Epoch: 23 October)

Date Brightness Start Highest point End Pass type
(mag) Time Alt. Az. Time Alt. Az. Time Alt. Az.
23 Oct -1.9 05:33:56 10° SSW 05:37:00 33° SE 05:40:04 10° ENE visible
24 Oct -1.1 04:46:09 10° S 04:48:35 19° SE 04:51:01 10° E visible
25 Oct -0.6 03:59:43 10° SE 04:00:14 10° SE 04:00:44 10° ESE visible
25 Oct -3.8 05:33:07 10° SW 05:36:30 78° NW 05:39:52 10° NE visible
26 Oct -3.2 04:46:50 35° SSW 04:47:57 56° SE 04:51:16 10° ENE visible
27 Oct -1.2 04:00:54 21° E 04:00:54 21° E 04:02:28 10° ENE visible
27 Oct -2.7 05:33:50 14° W 05:36:10 30° NNW 05:39:12 10° NE visible
28 Oct -3.3 04:47:43 47° NNW 04:47:43 47° NNW 04:50:46 10° NE visible
29 Oct -0.9 04:01:27 16° NE 04:01:27 16° NE 04:02:14 10° NE visible
29 Oct -1.8 05:34:21 13° NW 05:36:00 17° NNW 05:38:15 10° NNE visible
30 Oct -1.9 04:47:58 21° N 04:47:58 21° N 04:49:55 10° NNE visible
31 Oct -0.5 04:01:30 10° NE 04:01:30 10° NE 04:01:31 10° NE visible
31 Oct -1.3 05:34:50 10° NNW 05:35:58 11° NNW 05:37:06 10° N visible
01 Nov -1.2 04:47:50 13° N 04:47:50 13° N 04:48:50 10° NNE visible
